CANX-6

Satellite information

Favourite Embed

Satellite Type and Status

PAYLOADIN ORBIT

Key statistics

Satellite CANX-6 at a glance.

Uptime

6223

Days in orbit

Revolutions

≈ 15.0

Per day

Orbit

SSO

Sun Synchronous Orbit

Inclination

97.8

Latest

Satellite identification and parameters

Extended collection of information and parameters for CANX-6.

Object identification

Identified? True

Debris? False

Object name: CANX-6

International designator: 2008-021B

Object number (NORAD): 32784

Object ID (CCSDS): 32784

Country: CANADA (CA)

Current information (Y/N): Y

RCS size: MEDIUM

Orbital parameters

Period: 96.043 minutes

Inclination: 97.8346 deg

SMA: 6947.096 km

Apoapsis: 576.196 km

Periapsis: 561.726 km

RAAN: 100.6878 deg

Eccentricy: 0.0010414

Argument of periapsis: 348.4066 deg

Mean anomaly: 11.6915 deg

Mean motion: 14.9933198 rev/day

Mean motion (dot): 0.00003987 rev/day2

B* drag term: 0.00033084 1/REarth

Two-line elements (TLE)

Creation date: May 12, 2025, 2:31 a.m.

Reference frame: TEME

Reference center: EARTH

Epoch: May 11, 2025, 9:44 p.m. UTC

TLE line 0: 0 CANX-6

TLE line 1: 1 32784U 08021B 25131.90568238 .00003987 00000-0 33084-3 0 9996

TLE line 2: 2 32784 97.8346 100.6878 0010414 348.4066 11.6915 14.99331980923929

Live tracking on map

Real-time ground track for satellite CANX-6.

In-orbit conjunctions

There are no conjunctions computed for CANX-6, at the moment. Check back to stay up to date, as we update our databases every day.

Go to all conjunctions

Associated space launch

Indian Earth observation satellite. Launched alongside 9 nanosatellites.

CANX-6 was lifted into orbit during the mission ‘PSLV | Cartosat 2A’, on board a PSLV space rocket.

The launch took place on April 28, 2008, 3:53 a.m. from Satish Dhawan Space Centre Second Launch Pad.

For more information about the launch, click the button.

Launch to space PSLV | Cartosat 2A
PSLV | Cartosat 2A

Agency: N/A

Status: Launch Successful

Launch date: April 28, 2008, 3:53 a.m. UTC

Rocket: PSLV

Launch pad: Satish Dhawan Space Centre Second Launch Pad

Location: Satish Dhawan Space Centre, India

...

Latest news about this satellite

There are no fresh news available about this satellite. Check back as we update our databases every day.


Newsletter sign-up

Weekly statistics, charts and insights to help you stay on top of the space industry.